GW1785 Weather Reports


time (UTC)temp
C
wind
direction
speed
KPH
gust
KPH
rain 1hr
cm
rain 24hr
cm
rain mn
cm
humidity
%
barometer
mb
20260906234603 16 0 0.0 4.8 0.00 0.51 0.18 82 1016.1
20260906234554 16 20 0.0 4.8 0.00 0.51 0.18 83 1013.3
20260906233102 16 360 1.6 9.7 0.00 0.51 0.18 84 1016.1
20260906233055 16 360 3.2 8.0 0.00 0.51 0.18 84 1013.3
20260906231603 15 5 4.8 12.9 0.00 0.51 0.18 85 1016.3
20260906231555 15 5 4.8 12.9 0.00 0.51 0.18 86 1013.4
20260906230104 16 355 8.0 17.7 0.00 0.51 0.18 85 1016.3
20260906230058 16 355 4.8 17.7 0.00 0.51 0.18 86 1013.4
20260906224605 16 341 3.2 8.0 0.00 0.51 0.18 85 1016.4
20260906224558 16 340 3.2 8.0 0.00 0.51 0.18 85 1013.5
20260906223104 16 355 3.2 9.7 0.00 0.51 0.18 85 1016.6
20260906223059 16 355 3.2 9.7 0.00 0.51 0.18 86 1013.5
20260906221606 16 337 3.2 6.4 0.00 0.51 0.18 86 1016.6
20260906221504 16 334 3.2 6.4 0.00 0.51 0.18 85 1013.7
20260906220105 16 0 1.6 6.4 0.00 0.51 0.18 85 1016.8
20260906220005 16 104 1.6 6.4 0.00 0.51 0.18 85 1014.0
20260906214602 16 104 0.0 4.8 0.00 0.51 0.18 84 1017.2
20260906214509 16 104 0.0 4.8 0.00 0.51 0.18 85 1014.1
20260906213107 16 0 0.0 4.8 0.00 0.51 0.18 85 1017.1
20260906213019 16 104 0.0 4.8 0.00 0.51 0.18 85 1014.1
20260906211602 15 0 0.0 4.8 0.00 0.51 0.18 85 1017.0
20260906211533 15 104 0.0 3.2 0.00 0.51 0.18 85 1014.1
20260906210130 15 0 0.0 4.8 0.00 0.51 0.18 85 1016.8
20260906210020 15 104 0.0 4.8 0.00 0.51 0.18 86 1014.0
20260906204607 15 0 1.6 9.7 0.00 0.51 0.18 86 1016.9
20260906204531 15 104 1.6 9.7 0.00 0.51 0.18 87 1013.9
20260906203102 15 101 1.6 6.4 0.00 0.51 0.18 86 1016.8
20260906203030 15 101 0.0 6.4 0.00 0.51 0.18 87 1013.9
20260906201610 15 101 4.8 11.3 0.00 0.51 0.18 86 1017.0
20260906201531 15 101 4.8 11.3 0.00 0.51 0.18 87 1013.8
20260906200100 15 96 1.6 6.4 0.00 0.51 0.18 87 1017.1
20260906200047 15 96 1.6 6.4 0.00 0.51 0.18 88 1013.9
20260906194610 15 80 3.2 6.4 0.00 0.51 0.18 87 1017.1
20260906194545 15 80 1.6 6.4 0.00 0.51 0.18 88 1014.1
20260906193109 15 78 1.6 8.0 0.00 0.51 0.18 88 1014.2
20260906193103 15 78 1.6 8.0 0.00 0.51 0.18 87 1017.4
20260906191606 15 0 0.0 6.4 0.00 0.51 0.18 88 1017.5
20260906190103 15 73 1.6 6.4 0.00 0.51 0.18 88 1017.8
20260906190001 15 73 1.6 6.4 0.00 0.51 0.18 88 1014.6
20260906184604 15 67 4.8 12.9 0.00 0.51 0.18 87 1017.8
20260906184516 15 67 4.8 12.9 0.00 0.51 0.18 88 1014.7
20260906183104 15 78 4.8 14.5 0.00 0.51 0.18 87 1017.9
20260906183027 15 77 4.8 12.9 0.00 0.51 0.18 87 1014.7
20260906181607 15 42 8.0 19.3 0.00 0.51 0.18 86 1017.8
20260906181542 15 56 6.4 19.3 0.00 0.51 0.18 86 1014.7
20260906180109 15 34 9.7 22.5 0.00 0.51 0.18 84 1017.7
20260906180034 15 34 9.7 22.5 0.00 0.51 0.18 85 1014.6
20260906174606 15 56 9.7 24.1 0.00 0.51 0.18 84 1017.5
20260906174547 15 69 9.7 24.1 0.00 0.51 0.18 85 1014.4
20260906173108 14 50 11.3 22.5 0.00 0.51 0.18 86 1017.8
20260906173043 14 34 12.9 22.5 0.00 0.51 0.18 86 1014.7
20260906171608 13 24 9.7 20.9 0.00 0.51 0.18 86 1018.1
20260906171600 13 22 11.3 20.9 0.00 0.51 0.18 87 1015.2
20260906170111 13 347 11.3 20.9 0.00 0.51 0.18 87 1018.1
20260906170043 13 23 11.3 20.9 0.00 0.51 0.18 87 1015.2
20260906164612 13 70 11.3 20.9 0.00 0.51 0.18 89 1017.7
20260906164543 13 70 9.7 20.9 0.00 0.51 0.18 89 1014.9
20260906163109 12 71 9.7 17.7 0.00 0.51 0.18 91 1018.1
20260906163038 12 66 9.7 17.7 0.00 0.51 0.18 91 1015.2
20260906161609 12 13 4.8 8.0 0.00 0.51 0.18 91 1019.3
20260906160104 12 360 3.2 8.0 0.03 0.51 0.18 92 1019.4
20260906154604 12 346 4.8 17.7 0.05 0.51 0.18 92 1019.4
20260906153103 12 331 6.4 14.5 0.05 0.51 0.18 93 1019.5
20260906151601 11 347 4.8 9.7 0.08 0.51 0.18 92 1019.9
20260906150106 11 350 3.2 12.9 0.08 0.48 0.15 92 1020.0
20260906144602 11 331 4.8 16.1 0.13 0.46 0.13 92 1019.8
20260906143112 11 348 9.7 25.7 0.13 0.46 0.13 92 1020.0
20260906141600 11 349 11.3 24.1 0.10 0.43 0.10 92 1020.0
20260906140106 12 312 11.3 22.5 0.08 0.41 0.08 92 1020.0
20260906134603 12 304 12.9 22.5 0.00 0.38 0.00 91 1020.2
20260906133105 12 317 6.4 12.9 0.00 0.38 0.00 91 1019.9
20260906131603 12 320 4.8 11.3 0.00 0.38 0.00 90 1019.9
20260906130105 12 321 3.2 14.5 0.00 0.38 0.00 89 1019.8
20260906124559 12 328 4.8 9.7 0.00 0.51 0.00 89 1020.0
20260906123103 13 340 8.0 16.1 0.00 0.51 0.00 90 1019.9
20260906121604 12 352 8.0 16.1 0.00 0.51 0.00 90 1019.8
20260906120114 13 320 8.0 17.7 0.00 0.51 0.00 89 1019.7
20260906114604 13 313 6.4 17.7 0.00 0.53 0.00 87 1019.6
20260906113103 13 360 6.4 14.5 0.00 0.53 0.00 88 1019.4
20260906111617 13 311 3.2 17.7 0.00 0.53 0.00 87 1019.9
20260906110105 13 68 6.4 16.1 0.00 0.53 0.00 86 1019.3
20260906104604 13 61 8.0 16.1 0.00 0.53 0.00 88 1019.3
20260906103102 13 74 6.4 22.5 0.00 0.53 0.00 88 1019.3
20260906101607 13 24 11.3 20.9 0.00 0.53 0.00 87 1019.2
20260906100103 13 28 8.0 20.9 0.00 0.53 0.00 87 1019.3
20260906094604 13 5 9.7 20.9 0.00 0.53 0.00 88 1019.4
20260906093105 13 17 11.3 19.3 0.00 0.53 0.00 89 1019.4
20260906091615 13 20 11.3 20.9 0.00 0.53 0.00 87 1019.3
20260906084606 12 5 12.9 24.1 0.00 0.53 0.00 90 1019.1
20260906083106 12 26 11.3 22.5 0.00 0.53 0.00 90 1019.3
20260906081603 12 339 11.3 29.0 0.00 0.53 0.00 90 1019.7
20260906080110 12 347 12.9 24.1 0.00 0.53 0.00 90 1020.2
20260906074603 13 340 8.0 17.7 0.00 0.53 0.00 91 1020.8
20260906073102 13 360 9.7 20.9 0.00 0.53 0.00 90 1020.9
20260906071604 13 5 6.4 14.5 0.00 0.53 0.00 90 1021.2
20260906064601 12 334 6.4 16.1 0.00 0.53 0.00 92 1021.1
20260906063102 12 326 4.8 16.1 0.00 0.53 0.00 91 1021.5
20260906061605 12 336 8.0 19.3 0.03 0.53 0.00 91 1021.2
20260906054607 13 28 9.7 17.7 0.10 0.53 0.53 91 1021.0
20260906053100 13 321 12.9 22.5 0.10 0.53 0.53 90 1021.1
20260906051615 13 311 9.7 20.9 0.08 0.51 0.51 89 1021.3
20260906050106 13 340 9.7 19.3 0.03 0.43 0.43 89 1020.9
20260906044605 13 340 8.0 16.1 0.03 0.43 0.43 89 1020.5
20260906043100 13 338 6.4 12.9 0.03 0.43 0.43 89 1020.9
20260906041605 13 319 4.8 16.1 0.03 0.43 0.43 88 1021.1
20260906040113 13 352 6.4 24.1 0.00 0.41 0.41 87 1020.8
20260906034603 13 11 9.7 22.5 0.00 0.41 0.41 87 1019.6
20260906033106 14 336 12.9 25.7 0.15 0.41 0.41 86 1019.4
20260906031607 14 348 6.4 16.1 0.20 0.41 0.41 87 1019.4
20260906030118 14 26 8.0 19.3 0.20 0.41 0.41 85 1019.5
20260906024625 15 12 9.7 19.3 0.20 0.41 0.41 83 1019.1
20260906023104 17 344 8.0 17.7 0.05 0.25 0.25 69 1019.3
20260906021559 17 321 11.3 24.1 0.00 0.20 0.20 67 1019.1
20260906020113 17 5 8.0 20.9 0.00 0.20 0.20 66 1018.1
20260906014612 17 16 11.3 22.5 0.00 0.20 0.20 66 1018.3
20260906014547 17 29 11.3 22.5 0.00 0.20 0.20 66 1015.4
20260906013103 17 12 9.7 22.5 0.00 0.20 0.20 64 1018.3
20260906013043 17 24 9.7 22.5 0.00 0.20 0.20 65 1015.4
20260906011603 18 29 9.7 19.3 0.00 0.20 0.20 62 1018.2
20260906011543 18 348 9.7 19.3 0.00 0.20 0.20 62 1015.3
20260906010119 18 11 9.7 22.5 0.00 0.20 0.20 60 1018.3
20260906010050 18 18 9.7 19.3 0.00 0.20 0.20 60 1015.4
20260906004610 19 17 11.3 20.9 0.00 0.20 0.20 58 1018.1
20260906004549 19 35 9.7 20.9 0.00 0.20 0.20 58 1015.3
20260906003117 20 17 6.4 17.7 0.00 0.20 0.20 57 1018.2
20260906003052 20 16 8.0 17.7 0.00 0.20 0.20 58 1015.1
20260906001608 20 27 8.0 17.7 0.00 0.20 0.20 57 1018.1
20260906001549 20 27 6.4 14.5 0.00 0.20 0.20 58 1015.2
20260906000109 21 11 9.7 19.3 0.00 0.20 0.20 54 1018.4
20260906000050 21 355 9.7 17.7 0.00 0.20 0.20 54 1015.4